Location: Banff
(51.1667°N, 115.5667°W)
Time: 20:24:33
(UTC+00:00)

Vanguard 1 Rocket - Pass Details

Date: 26 November 2020
Orbit: 655 x 4221 km, 34.3° (Epoch: 17 January)

Event Time Altitude Azimuth Distance (km) Brightness Sun altitude
Exits shadow 08:53:32 29° 132° (SE) 5,099 11.0 -55.7°
Drops below altitude 10° 09:03:49 10° 99° (E) 5,651 11.6 -54.7°
Sets 09:08:01 0° 90° (E) 6,209 12.0 -54.3°
